Location: Exeidioux
(45.6312°N, 1.6819°E)
Time: 14:16:06
(UTC+00:00)

Gbstr 26 Del rocket - Pass Details

Date: 03 March 2021
Orbit: 492 x 1264 km, 51.8° (Epoch: 11 April)

Event Time Altitude Azimuth Distance (km) Brightness Sun altitude
Rises 18:06:13 0° 263° (W) 2,702 9.4 -4.9°
Reaches altitude 10° 18:08:19 10° 269° (W) 1,880 7.5 -5.2°
Maximum altitude 18:12:28 50° 345° (NNW) 827 3.8 -5.9°
Drops below altitude 10° 18:17:30 10° 61° (ENE) 2,281 5.4 -6.8°
Enters shadow 18:18:33 - 64° (ENE) 2,684 5.7 -7.0°
